Dewpoint
57 57 57 58 58 58 58 58 58 58 59 59 59 59 60 59 59 60 60 60 59 60 60 60 60 60 60 60 61 61 58 42 38 37 36 32 44 59 61 65 66 64 56 35 33 31 30 30 31 33 35 34 35 32 34 40 39 35 28 25 21 25 23 26 21 24 25 22 22 22 22 22 20 21 22 23 23 24 25 26 27 28 28 29 31 39 39 40
57 57 57 57 57 58 58 58 58 58 58 59 59 59 59 59 59 59 59 60 59 59 60 60 60 60 60 60 60 60 52 42 39 40 35 49 60 65 64 65 64 62 50 37 33 30 29 28 31 34 32 30 38 34 37 36 40 34 29 23 22 25 24 29 24 24 21 22 22 22 23 21 20 21 22 21 21 21 21 22 24 25 26 29 36 38 38 38
57 56 57 57 57 57 57 57 58 58 59 59 59 59 59 58 59 59 59 59 59 59 59 60 60 60 60 60 60 60 51 40 21 15 34 61 64 65 65 66 62 59 40 40 37 30 26 26 30 32 34 29 33 33 37 35 38 36 29 26 25 26 25 28 28 26 24 24 23 24 24 21 21 22 23 22 20 21 20 20 20 22 23 24 32 37 37 37
56 56 56 57 57 57 57 57 58 58 58 58 58 58 58 58 58 59 59 59 59 59 59 59 60 60 60 60 60 55 37 23 16 13 25 52 62 66 67 65 62 55 41 40 34 31 31 31 32 32 32 30 32 38 35 36 34 35 31 29 29 29 26 26 28 28 26 26 25 24 22 21 21 21 22 21 20 21 20 21 20 20 20 22 28 37 37 36
57 57 57 57 57 57 57 57 57 58 58 58 58 58 58 58 58 59 59 59 59 59 59 59 60 60 60 60 59 45 27 13 17 21 26 64 65 66 67 65 60 42 39 34 30 29 30 29 30 31 31 27 30 34 35 35 35 34 32 32 31 29 27 27 26 28 27 27 27 22 21 23 22 22 21 21 20 21 21 21 21 21 21 20 26 35 37 36
57 57 57 57 57 57 57 57 57 58 58 58 58 58 58 58 58 58 58 59 59 59 59 59 59 60 60 60 51 38 25 9 26 34 61 66 66 67 66 63 56 35 34 32 31 29 29 28 28 28 26 25 27 25 25 36 34 29 30 32 33 30 28 29 27 26 27 24 22 24 25 23 23 23 22 21 20 22 23 21 21 21 22 22 27 35 36 36
58 57 58 58 57 57 57 57 57 57 58 58 57 58 58 58 58 58 58 58 58 59 59 59 59 60 60 58 43 30 22 23 30 37 63 65 66 66 64 62 53 38 34 31 30 31 29 27 27 28 27 25 23 26 25 32 34 31 28 29 29 32 31 31 31 30 27 26 27 27 25 25 25 24 22 21 21 22 22 22 21 21 22 26 28 34 34 36
58 58 58 58 58 58 58 57 57 57 57 58 58 58 58 58 58 58 58 58 58 58 59 59 59 60 60 38 33 27 29 25 23 45 63 64 61 60 54 47 44 39 33 31 29 29 27 26 25 28 24 22 22 25 27 27 33 32 31 31 30 30 30 30 30 29 29 28 28 26 25 26 26 24 21 20 21 21 21 21 21 21 21 24 25 29 33 34
58 58 58 58 58 58 58 57 57 57 57 57 58 58 58 58 58 58 58 58 58 58 58 58 58 59 58 37 30 24 21 37 31 38 58 56 53 49 44 41 42 37 35 31 29 30 28 26 26 24 18 24 25 24 25 23 21 31 29 30 31 28 27 27 27 26 26 26 24 22 22 22 22 23 21 21 22 22 22 22 22 21 21 21 24 25 29 32
58 58 58 58 58 58 57 57 57 57 57 57 57 58 58 58 57 57 57 58 58 58 58 58 59 58 44 32 28 21 27 37 44 50 53 51 48 43 36 40 39 33 31 30 27 26 24 23 25 29 27 26 26 23 26 23 21 28 30 29 28 27 26 24 23 23 24 23 22 22 22 21 22 21 19 21 21 22 22 21 21 21 20 20 22 25 28 30
58 58 58 57 58 58 57 57 57 57 57 57 58 57 58 58 58 57 57 57 58 57 58 58 58 55 43 31 25 19 31 41 44 52 51 49 45 40 38 44 41 32 27 29 28 27 26 26 31 30 29 21 25 24 24 24 24 24 23 22 22 22 22 22 22 22 21 20 21 21 21 21 21 22 20 19 20 20 19 19 19 21 21 20 21 23 28 30
58 57 57 57 57 57 57 57 57 57 57 57 58 58 57 58 58 58 58 58 57 58 58 58 59 56 40 28 26 25 38 40 47 49 49 44 41 41 41 43 40 37 26 24 28 35 32 31 32 21 14 23 19 22 22 25 24 23 22 21 21 21 19 20 19 19 21 19 21 21 20 20 20 19 19 20 21 20 20 19 19 19 19 21 22 22 24 28
57 57 57 57 57 57 57 57 57 57 57 57 57 57 57 58 58 58 57 57 57 57 58 57 58 55 35 22 25 37 40 43 46 46 43 44 44 44 43 42 41 36 30 22 26 34 35 34 31 24 27 23 22 16 21 25 24 23 22 21 19 19 17 17 19 20 20 19 21 17 10 16 16 16 16 18 18 18 18 18 18 18 19 19 21 21 23 24
58 57 58 57 57 57 57 57 57 57 57 57 58 58 58 58 58 58 57 57 57 57 58 57 56 49 29 21 27 38 43 42 44 43 43 44 36 39 45 44 44 43 40 29 35 40 36 37 32 27 33 24 20 29 25 24 24 20 21 20 19 18 16 17 18 19 17 21 21 16 13 13 12 12 13 15 15 15 14 15 16 17 18 18 20 22 22 22
58 58 58 57 57 57 57 57 57 57 58 57 57 57 58 58 57 57 57 57 57 58 58 57 52 34 28 27 32 41 54 39 37 40 43 38 36 37 41 41 40 41 40 41 42 42 39 37 32 27 24 27 27 24 21 22 22 24 16 17 21 17 19 17 19 19 16 18 21 17 16 14 13 13 14 15 18 17 16 16 17 17 18 18 19 19 20 22
59 59 59 58 57 57 57 57 57 57 57 57 57 58 58 58 58 57 56 57 56 58 55 46 45 33 21 21 29 47 38 36 34 39 42 42 38 35 39 39 38 38 35 33 41 38 32 34 30 28 25 24 23 23 23 21 22 24 16 17 16 19 18 16 15 17 18 18 20 16 12 16 14 17 18 17 19 19 17 17 18 18 18 18 18 18 19 21
59 59 58 58 57 57 57 57 57 57 57 57 58 58 58 57 57 56 57 58 56 56 48 40 46 39 25 27 32 25 25 36 41 41 41 42 40 39 37 37 34 34 35 33 35 35 29 27 29 26 27 23 23 25 18 20 18 19 21 18 21 17 16 14 17 15 21 17 16 18 16 14 13 13 13 15 16 17 17 17 17 17 17 18 19 19 20 20
59 58 58 58 57 57 57 57 57 57 57 58 58 58 55 56 56 54 54 55 55 53 50 48 41 28 28 32 26 24 41 35 40 39 40 41 39 36 36 33 34 33 32 28 30 26 28 25 28 24 24 24 22 21 20 15 17 16 15 18 17 19 18 15 15 13 14 19 15 17 17 16 16 16 17 17 18 18 17 17 17 17 17 18 18 19 19 19
59 59 58 58 58 58 57 57 57 57 58 58 58 54 53 54 46 49 48 44 35 31 27 32 24 23 24 22 27 26 40 43 40 39 38 38 41 36 34 33 33 26 26 25 24 24 28 29 28 22 20 20 20 20 18 17 16 15 15 13 15 13 12 16 17 18 18 16 16 16 14 13 14 14 15 16 16 17 16 15 15 16 17 18 18 19 19 20
59 59 59 58 58 58 57 58 58 58 58 56 49 44 41 36 34 35 36 39 38 30 30 28 33 28 31 29 28 32 44 41 36 37 39 40 36 34 33 29 31 28 24 25 28 25 28 24 22 22 21 19 18 20 20 18 17 16 18 17 14 14 14 14 14 14 17 14 14 13 13 13 13 13 13 14 14 15 15 15 15 16 17 18 18 19 20 20
59 59 59 59 58 58 58 58 58 58 58 51 45 37 32 33 31 30 34 34 35 37 36 36 35 33 29 30 37 37 31 30 37 38 40 44 37 32 31 27 27 26 25 27 28 27 26 23 23 23 21 19 18 19 20 20 19 18 19 19 16 19 15 15 15 16 18 16 15 14 14 15 15 15 15 16 16 15 16 16 16 16 17 18 19 19 19 20
59 59 59 59 58 58 58 58 58 58 55 45 43 38 37 35 36 36 35 32 34 35 35 35 35 35 36 35 36 36 35 29 29 38 40 40 33 29 29 28 26 25 28 27 25 25 23 22 22 23 22 21 19 19 20 20 20 20 19 19 20 19 20 19 19 19 19 19 17 18 17 17 17 17 18 17 17 17 17 17 17 17 18 19 19 20 20 21
58 59 59 59 58 58 58 58 58 55 48 46 42 40 39 41 42 42 39 35 36 37 35 35 32 32 32 33 35 35 31 29 26 34 37 38 33 31 29 27 26 27 27 25 23 24 23 25 23 23 23 22 22 19 20 21 22 21 21 20 18 20 19 16 19 20 20 18 18 19 18 18 18 18 18 18 18 18 19 20 21 21 19 19 19 19 20 21
58 58 58 58 58 58 58 58 57 49 47 44 42 41 42 42 42 42 39 34 32 34 35 36 33 31 31 30 34 32 30 28 28 27 38 35 31 33 29 28 26 26 24 24 23 22 20 23 25 24 24 22 21 22 20 19 17 22 22 20 19 20 19 18 16 20 20 21 22 20 19 17 19 18 19 19 20 20 20 20 20 21 25 24 25 26 27 24
58 58 58 58 58 58 58 57 48 46 45 43 42 43 42 42 42 41 38 35 30 31 36 31 34 33 31 37 36 30 31 31 29 31 38 35 28 29 28 29 27 26 26 25 24 24 23 24 26 24 25 24 23 21 22 23 19 19 23 21 20 19 18 19 20 20 19 18 22 19 15 15 19 19 20 20 19 19 20 20 20 20 20 21 22 22 23 27
58 58 58 58 58 58 58 52 46 46 46 43 43 42 42 41 41 40 35 30 32 33 31 29 34 30 34 27 34 32 27 26 31 31 39 36 34 28 26 27 27 27 26 26 25 25 24 25 25 24 25 25 24 23 24 24 20 19 20 23 21 21 21 21 20 20 18 15 20 22 14 14 17 18 19 20 20 19 19 20 19 19 19 20 23 24 23 23
58 58 58 58 58 58 54 50 48 48 49 46 44 43 42 42 42 40 30 28 27 31 29 33 31 28 30 28 31 29 24 28 32 35 34 37 31 34 24 24 23 22 26 26 23 22 24 23 23 24 24 24 23 21 24 23 22 19 23 24 24 22 22 22 22 21 19 23 24 23 20 16 17 18 19 19 18 17 17 17 18 19 19 20 21 23 23 24
57 58 58 58 58 57 54 52 52 51 51 48 45 44 43 42 41 38 31 28 26 29 27 27 30 33 33 32 30 24 24 25 21 28 34 35 33 29 24 22 23 23 21 23 20 24 23 23 23 23 23 24 23 23 25 25 21 22 25 25 23 23 23 23 22 21 22 21 21 21 22 18 18 19 19 19 18 18 18 17 18 18 20 21 22 23 23 24
54 55 57 57 58 58 55 54 52 51 50 47 45 44 44 41 34 30 31 29 31 27 32 28 34 30 30 30 27 25 25 24 16 23 33 33 34 28 26 26 22 22 21 22 20 21 20 23 25 26 24 22 25 24 26 26 22 24 26 27 26 25 25 24 22 22 21 18 18 21 21 15 15 17 17 21 18 18 18 18 18 19 21 22 23 24 24 25
54 54 55 57 57 56 54 54 52 51 49 47 46 45 42 39 34 29 28 26 31 29 28 30 29 26 28 26 26 26 24 24 27 28 29 30 31 29 27 27 23 23 26 25 23 24 23 31 29 24 23 23 24 26 26 26 24 27 26 25 25 23 22 22 21 21 17 14 20 21 21 17 14 18 18 18 21 19 19 19 19 21 22 22 23 23 26 26
53 53 54 57 55 54 54 51 53 50 49 48 47 48 46 45 38 33 29 34 34 34 28 28 26 29 26 25 24 25 26 25 24 28 26 28 28 28 26 24 26 26 23 22 24 26 25 24 24 27 29 27 27 26 26 27 27 26 23 23 22 21 17 17 12 18 13 16 19 20 21 19 15 17 17 19 20 19 20 20 19 20 20 21 23 24 25 25
51 52 53 55 56 55 53 52 51 49 49 49 50 47 44 36 35 31 30 37 32 33 27 26 27 29 27 27 25 26 25 25 25 26 23 26 27 27 26 24 24 19 21 18 20 23 21 24 26 27 32 25 25 23 24 27 27 26 24 22 15 16 15 8 12 11 12 16 17 20 21 18 17 16 16 18 18 18 18 19 19 20 21 22 23 23 24 26
51 51 53 54 55 54 54 52 51 51 51 50 49 47 39 34 28 33 32 32 33 30 29 28 26 27 28 26 26 29 27 26 25 25 29 27 26 28 30 26 28 23 21 24 20 22 24 23 24 25 26 29 27 20 22 20 26 25 22 23 18 11 9 8 5 3 9 14 16 20 21 17 17 18 19 18 19 19 20 19 20 21 22 23 23 23 24 26
50 51 50 51 55 55 53 52 52 52 50 50 47 43 37 32 29 39 32 32 33 33 31 27 29 28 26 27 28 27 25 30 28 25 29 26 25 25 27 28 26 26 25 22 19 20 19 21 24 24 23 30 27 23 23 23 25 24 25 23 22 19 13 8 10 13 15 18 15 16 15 17 11 17 21 19 19 21 22 21 21 23 24 24 25 25 25 25
48 51 52 53 53 56 52 52 52 51 51 47 43 40 33 32 33 31 30 30 32 30 32 30 29 28 29 27 27 29 28 28 29 26 26 26 24 25 26 24 29 27 27 23 27 22 21 21 25 28 28 29 27 29 29 25 25 26 26 25 19 21 23 16 20 19 18 15 11 11 18 18 16 21 21 23 22 21 22 22 23 21 22 24 24 25 26 26
48 47 51 51 52 55 53 52 51 52 51 46 40 35 34 34 30 31 32 34 32 31 31 31 29 28 29 27 28 27 30 28 28 24 24 26 27 24 27 26 26 26 24 23 26 22 23 19 27 25 27 27 26 27 26 25 20 24 25 21 24 26 23 22 22 22 19 16 17 17 17 19 21 19 19 21 20 19 20 20 20 20 22 23 23 25 25 27
43 45 44 49 50 54 53 52 52 52 50 45 39 34 37 35 37 33 39 31 32 31 30 28 30 29 28 27 28 28 28 27 26 25 24 27 25 27 26 26 29 29 26 24 23 27 23 22 28 24 23 25 27 28 27 27 26 24 20 24 26 27 27 23 19 20 17 17 18 21 20 18 18 19 19 20 20 21 20 20 18 19 22 21 24 26 27 26
43 44 46 45 49 54 53 52 51 51 48 43 37 39 37 36 37 37 35 32 32 34 30 29 31 31 30 28 29 28 29 28 28 25 25 26 26 29 27 25 28 27 26 28 22 28 26 20 23 27 25 27 28 27 26 27 28 23 25 29 22 20 19 21 21 17 18 18 20 20 19 20 20 19 20 19 19 19 19 19 18 17 19 22 24 25 26 26
44 44 38 42 45 54 53 51 51 49 44 38 37 37 40 39 38 36 36 36 35 34 32 33 32 34 32 30 30 30 29 29 28 25 25 30 25 29 27 28 26 28 28 28 25 27 31 23 24 29 27 27 27 27 22 23 27 29 27 25 28 22 24 20 23 23 20 19 21 21 24 21 25 22 21 19 18 19 19 19 19 19 20 23 26 27 27 27
40 39 37 43 51 54 52 51 49 46 42 35 37 38 39 36 38 38 37 37 35 34 33 33 33 32 32 33 33 32 32 31 30 31 29 32 30 34 30 32 27 30 32 28 28 30 25 28 22 27 28 31 27 25 24 25 23 24 23 22 25 25 27 25 23 23 22 20 20 19 19 23 24 23 22 21 19 20 20 21 23 24 25 27 27 27 28 26
43 39 37 52 53 53 52 50 44 40 39 41 41 39 39 37 37 37 37 38 36 38 35 33 32 33 32 32 33 33 32 32 32 32 32 33 32 31 34 35 33 31 34 31 29 31 30 29 25 28 31 32 32 31 28 27 27 26 26 26 29 26 25 23 22 26 24 22 20 20 19 24 33 28 24 25 23 24 23 22 22 22 25 27 28 28 26 25
40 31 36 53 53 53 49 42 42 42 39 39 38 39 38 41 39 38 36 37 36 36 37 34 34 33 32 33 34 32 32 31 33 32 32 33 34 34 34 34 34 34 32 31 30 34 32 30 30 28 29 29 30 32 32 30 29 29 26 26 27 26 29 25 21 23 27 25 26 25 23 23 35 34 32 31 29 26 24 22 21 23 25 27 28 28 27 28
39 34 43 50 53 52 46 40 42 40 39 40 42 41 39 38 36 35 36 36 36 37 36 36 35 34 34 34 32 32 33 32 32 32 31 31 32 36 37 34 34 34 34 32 32 32 34 23 26 29 31 32 32 32 31 29 30 30 30 29 27 25 26 26 26 25 25 26 26 26 25 29 39 38 34 32 31 31 21 19 22 24 27 29 29 29 29 29
39 38 40 45 50 49 43 34 35 37 39 41 41 40 40 39 37 37 37 35 36 35 36 34 34 36 35 34 33 33 33 32 33 33 32 32 32 33 31 33 34 33 34 32 32 34 28 28 28 25 24 25 27 30 29 30 31 29 30 31 31 31 31 31 32 30 27 27 27 26 21 24 36 38 35 32 30 29 28 28 27 28 28 28 27 27 26 25
35 36 37 39 44 46 37 41 37 38 38 39 39 38 38 39 39 39 39 37 37 36 35 34 36 34 33 35 33 33 32 34 32 33 32 30 30 30 29 33 34 33 35 35 37 35 32 29 28 24 22 20 20 19 18 21 26 29 28 31 32 32 31 30 27 28 25 27 28 26 25 27 29 31 30 29 29 28 28 25 25 26 26 24 24 24 24 23
29 23 25 35 41 41 40 41 39 39 36 37 36 38 38 37 38 38 40 40 40 39 37 37 35 31 32 32 33 33 33 32 33 30 28 29 28 28 29 30 32 31 35 34 33 31 30 31 31 30 29 25 25 26 28 31 30 29 29 28 29 29 30 30 29 27 25 27 27 27 28 27 27 27 26 28 28 28 27 22 22 23 23 22 22 22 23 22
33 29 27 18 34 37 34 36 35 39 36 38 34 36 35 35 35 35 39 34 36 38 35 36 34 34 33 33 32 32 32 32 32 33 33 33 30 28 29 29 30 32 33 30 32 31 29 29 31 32 31 30 30 30 32 32 30 30 30 29 30 30 29 27 27 25 28 27 24 28 28 28 28 27 24 22 24 26 25 20 20 20 21 21 21 22 25 22
24 25 31 33 32 28 31 28 32 32 35 35 33 35 34 33 33 33 33 36 35 35 34 33 35 35 35 33 31 28 29 29 30 31 29 27 25 26 26 27 29 30 28 25 29 30 28 26 28 29 28 31 31 30 30 30 30 30 30 30 30 30 30 29 29 30 30 28 25 29 30 30 30 31 21 22 21 21 23 20 18 19 20 21 21 21 22 22
29 28 28 31 28 29 31 32 31 32 31 32 32 34 33 33 33 34 32 33 34 33 35 32 31 31 31 32 32 31 31 28 27 28 27 25 24 25 22 24 26 27 24 23 25 30 30 27 29 28 28 27 27 28 29 28 28 28 28 29 30 30 29 29 29 30 30 29 29 29 29 29 31 22 23 22 22 20 20 22 18 18 19 21 21 22 22 22
24 25 24 30 30 29 28 29 29 28 28 30 30 31 32 32 31 32 33 33 30 31 33 33 30 30 30 29 29 28 29 30 29 27 28 23 23 28 25 25 25 24 22 20 22 26 30 24 26 24 22 22 23 25 26 26 25 24 26 27 28 27 27 27 28 28 28 27 27 27 28 28 25 24 21 22 20 21 20 21 18 19 20 21 21 22 22 22
30 33 35 29 26 26 27 26 27 27 27 29 28 29 30 31 31 29 29 33 33 32 31 28 29 28 29 29 29 28 31 30 31 30 30 27 24 26 24 24 24 20 20 18 26 25 25 21 23 23 20 18 21 20 20 21 21 21 21 22 23 23 22 21 21 21 21 21 24 26 26 25 21 22 21 20 20 19 19 19 22 21 21 22 22 22 23 23
28 28 33 32 23 26 24 25 23 26 22 25 28 30 29 27 25 28 28 33 28 28 26 25 26 26 25 28 25 28 31 26 26 26 29 29 28 26 24 22 20 19 17 17 17 18 18 19 17 17 15 15 18 19 18 18 18 15 15 15 16 16 18 19 19 24 25 27 26 25 23 21 22 23 20 19 19 19 17 19 22 22 23 23 23 23 24 24